User: anonymous   Login
Location: Hernandez
(10.3704°N, 67.2181°W)
Time: 17:24:12
(UTC+00:00)
Language:

ADEOS Rocket - Orbit

View from above orbital plane
View from above orbital plane
View from above satellite
View from above satellite

Ground track
Ground track

The orbit data is extracted from the following two-line orbital elements,

1 24279U 96046C   24173.96785303  .00000010  00000-0  59890-4 0  9993
2 24279  98.6910 192.9826 0298708 235.4136 182.3839 13.47309053368909
Epoch (UTC): 21 June 2024 23:13:42
Eccentricity: 0.0298708
inclination: 98.6910°
perigee height: 859 km
apogee height: 1305 km
right ascension of ascending node: 192.9826°
argument of perigee: 235.4136°
revolutions per day: 13.47309053
mean anomaly at epoch: 182.3839°
orbit number at epoch: 36890

The dashed part of the orbit path shows where the satellite is in the earth's shadow,  

DLR